Find Starlink 34649

NORAD ID: 64798 Int'l Des: 2025-150 Owner: SPXS Country: US Constellation: starlink operational
LEOCIRCULAR

当前视图

正在加载3D地球...

About Starlink 34649

Starlink 34649 (NORAD 64798) is a starlink constellation satellite (v2 mini) launched Jul 16, 2025 by SPXS of US. It operates in LEO, CIRCULAR orbit with a mass of 575.00 kg.

即将过境

Passes for default location (London). Set your location on the main map for personalized predictions.

高度历史

Loading altitude history...

两行轨道根数

1 64798U 25150J 26263.55525516 .00002581 00000-0 22402-3 0 9999
2 64798 70.0027 3.2188 0003336 269.4894 90.5883 14.98336795 66595
Epoch: Sep 20, 2026 • Age: 14 hours

当前状态

高度 595.3 km
远地点 / 近地点 N/A
速度 7.56 km/s
星下点 -70.10°S, 138.84°W
发射日期 Jul 16, 2025
运行时间 1.1 years
类型 internet

技术详情

分类 Payload
质量 575.00 kg
干质量 530.00 kg
长度 0.30 m
跨度 29.00 m
形状 ? Box + pan
制造商 SPXS
平台类型 Starlink V2MO
阶段状态 In Orbit
所有者/国家 SPXS/US

Most Searched